{"data":{"norad_id":53893,"epoch":"2026-05-24T22:13:45.890112Z","epoch_age_seconds":74739,"freshness":"FRESH","line1":"1 53893U 22119H   26144.92622558  .00001035  00000+0  83093-4 0  9994","line2":"2 53893  53.2133 341.8844 0001262  82.9180 277.1955 15.08841426203198","mean_motion":15.08841426,"eccentricity":0.0001262,"inclination_deg":53.2133,"raan_deg":341.8844,"arg_perigee_deg":82.918,"mean_anomaly_deg":277.1955,"bstar":8.3093e-5,"rev_number":20319,"period_min":95.437464480114,"perigee_km":538.865994301,"apogee_km":540.61206621104,"semimajor_km":6917.876030256,"source":"CELESTRAK","updated_at":"2026-05-25T13:38:17.582988Z"}}